Weather History for Aberdeen / Amory, MS

Change the Weather History Date:

Sunday, December 9, 2012

  Actual Average (KCBM) Record (KCBM)
Temperature  
Mean Temperature 65 °F -  
Max Temperature 71 °F 55 °F 76 °F (2007)
Min Temperature 59 °F 37 °F 16 °F (2010)
Growing Degree Days 15 (Base 50)    
Moisture  
Dew Point 48 °F    
Average Humidity 55    
Maximum Humidity 60    
Minimum Humidity 52    
Precipitation  
Precipitation 0.00 in - - ()
Sea Level Pressure  
Sea Level Pressure 29.94 in    
Wind  
Wind Speed 8 mph (South)    
Max Wind Speed 15 mph    
Max Gust Speed 25 mph    
Visibility 7 miles    
Events      
Averages and records for this station are not official NWS values.
T = Trace of Precipitation, MM = Missing Value Source: NWS Daily Summary

Daily Weather History Graph

Daily Weather History Graph

Search for Another Location

Airport:

Trip Planner

Search our weather history database for the weather conditions in past years. The results will help you decide how hot, cold, wet, or windy it might be!

Date:

Astronomy

Dec. 09, 2012 Rise Set
Actual Time 6:47 AM CST 4:45 PM CST
Civil Twilight 6:20 AM CST 5:12 PM CST
Nautical Twilight 5:49 AM CST 5:43 PM CST
Astronomical Twilight 5:18 AM CST 6:14 PM CST
Moon 2:28 AM CST (12/9) 1:44 PM CST (12/9)
Length of Visible Light 10h 52m
Length of Day
9h 57m
Waning Crescent, 18% of the Moon is Illuminated
Dec 9
Waning Crescent
Dec 13
New
Dec 19
First Quarter
Dec 28
Full
Jan 4
Last Quarter

Hourly Weather History & Observations

Time (CST) Temp. Dew Point Humidity Pressure Visibility Wind Dir Wind Speed Gust Speed Precip Events Conditions
12:15 AM 60.8 °F 44.6 °F 55% 29.97 in 4.0 mi South 5.8 mph - N/A   Haze
12:35 AM 60.8 °F 44.6 °F 55% 29.96 in 4.0 mi South 5.8 mph - N/A   Haze
12:55 AM 60.8 °F 44.6 °F 55% 29.96 in 4.0 mi South 6.9 mph - N/A   Haze
1:15 AM 60.8 °F 44.6 °F 55% 29.96 in 4.0 mi South 5.8 mph - N/A   Haze
1:35 AM 60.8 °F 44.6 °F 55% 29.96 in 5.0 mi South 6.9 mph - N/A   Haze
1:55 AM 60.8 °F 44.6 °F 55% 29.96 in 4.0 mi South 3.5 mph - N/A   Haze
2:15 AM 60.8 °F 44.6 °F 55% 29.96 in 4.0 mi South 6.9 mph - N/A   Haze
2:35 AM 60.8 °F 44.6 °F 55% 29.96 in 4.0 mi South 4.6 mph - N/A   Haze
2:55 AM 60.8 °F 44.6 °F 55% 29.97 in 4.0 mi South 4.6 mph - N/A   Haze
3:15 AM 60.8 °F 44.6 °F 55% 29.96 in 4.0 mi South 6.9 mph - N/A   Haze
3:35 AM 60.8 °F 44.6 °F 55% 29.96 in 4.0 mi South 6.9 mph - N/A   Haze
3:55 AM 60.8 °F 44.6 °F 55% 29.95 in 4.0 mi South 6.9 mph - N/A   Haze
4:15 AM 60.8 °F 44.6 °F 55% 29.95 in 3.0 mi South 6.9 mph - N/A   Haze
4:35 AM 60.8 °F 44.6 °F 55% 29.96 in 3.0 mi South 5.8 mph - N/A   Haze
4:55 AM 60.8 °F 44.6 °F 55% 29.96 in 2.5 mi South 6.9 mph - N/A   Haze
5:15 AM 60.8 °F 44.6 °F 55% 29.96 in 2.5 mi South 5.8 mph - N/A   Haze
5:35 AM 60.8 °F 44.6 °F 55% 29.97 in 3.0 mi South 6.9 mph - N/A   Haze
5:55 AM 60.8 °F 44.6 °F 55% 29.98 in 3.0 mi South 8.1 mph - N/A   Haze
6:35 AM 60.8 °F 44.6 °F 55% 29.98 in 4.0 mi South 5.8 mph - N/A   Haze
6:55 AM 59.0 °F 42.8 °F 55% 29.98 in 3.0 mi South 4.6 mph - N/A   Haze
7:15 AM 60.8 °F 42.8 °F 52% 29.99 in 2.5 mi South 4.6 mph - N/A   Haze
7:35 AM 60.8 °F 44.6 °F 55% 29.99 in 3.0 mi South 5.8 mph - N/A   Haze
7:55 AM 60.8 °F 44.6 °F 55% 30.00 in 3.0 mi South 6.9 mph - N/A   Haze
8:15 AM 60.8 °F 44.6 °F 55% 29.99 in 5.0 mi South 9.2 mph - N/A   Haze
8:35 AM 62.6 °F 44.6 °F 52% 30.00 in 5.0 mi SSW 8.1 mph - N/A   Haze
8:55 AM 62.6 °F 46.4 °F 55% 30.00 in 6.0 mi SSW 6.9 mph - N/A   Haze
9:15 AM 64.4 °F 46.4 °F 52% 30.01 in 6.0 mi South 8.1 mph - N/A   Haze
9:35 AM 64.4 °F 48.2 °F 56% 30.01 in 8.0 mi SSW 10.4 mph - N/A   Mostly Cloudy
9:55 AM 64.4 °F 48.2 °F 56% 30.02 in 8.0 mi SSW 12.7 mph - N/A   Mostly Cloudy
10:15 AM 64.4 °F 48.2 °F 56% 30.02 in 8.0 mi South 10.4 mph - N/A   Overcast
10:35 AM 66.2 °F 48.2 °F 52% 30.01 in 8.0 mi South 11.5 mph - N/A   Overcast
10:55 AM 66.2 °F 48.2 °F 52% 30.01 in 7.0 mi South 10.4 mph - N/A   Overcast
11:15 AM 66.2 °F 48.2 °F 52% 30.00 in 7.0 mi South 13.8 mph 18.4 mph N/A   Overcast
11:35 AM 66.2 °F 50.0 °F 56% 29.99 in 7.0 mi SSW 13.8 mph - N/A   Overcast
11:55 AM 66.2 °F 48.2 °F 52% 29.98 in 9.0 mi South 9.2 mph - N/A   Overcast
12:15 PM 64.4 °F 48.2 °F 56% 29.97 in 7.0 mi South 10.4 mph 16.1 mph N/A   Overcast
12:35 PM 66.2 °F 50.0 °F 56% 29.96 in 7.0 mi South 10.4 mph - N/A   Mostly Cloudy
12:55 PM 68.0 °F 51.8 °F 56% 29.95 in 8.0 mi South 12.7 mph - N/A   Mostly Cloudy
1:15 PM 69.8 °F 51.8 °F 53% 29.94 in 7.0 mi South 9.2 mph - N/A   Mostly Cloudy
1:35 PM 69.8 °F 51.8 °F 53% 29.94 in 8.0 mi SSE 11.5 mph 17.3 mph N/A   Scattered Clouds
1:55 PM 71.6 °F 53.6 °F 53% 29.93 in 7.0 mi South 8.1 mph - N/A   Partly Cloudy
2:15 PM 71.6 °F 53.6 °F 53% 29.93 in 7.0 mi South 10.4 mph - N/A   Clear
2:35 PM 69.8 °F 53.6 °F 56% 29.93 in 8.0 mi South 9.2 mph - N/A   Clear
2:55 PM 69.8 °F 51.8 °F 53% 29.93 in 7.0 mi South 9.2 mph - N/A   Clear
3:15 PM 69.8 °F 51.8 °F 53% 29.92 in 8.0 mi South 9.2 mph - N/A   Clear
3:35 PM 71.6 °F 55.4 °F 57% 29.92 in 8.0 mi SSE 12.7 mph - N/A   Clear
3:55 PM 69.8 °F 53.6 °F 56% 29.91 in 8.0 mi SSE 9.2 mph - N/A   Clear
4:15 PM 68.0 °F 51.8 °F 56% 29.91 in 7.0 mi SSE 8.1 mph - N/A   Clear
4:35 PM 66.2 °F 50.0 °F 56% 29.90 in 6.0 mi SSE 6.9 mph - N/A   Haze
4:55 PM 66.2 °F 48.2 °F 52% 29.90 in 5.0 mi SSE 5.8 mph - N/A   Haze
5:15 PM 66.2 °F 48.2 °F 52% 29.90 in 7.0 mi SSE 5.8 mph - N/A   Scattered Clouds
5:35 PM 66.2 °F 48.2 °F 52% 29.89 in 7.0 mi SSE 6.9 mph - N/A   Mostly Cloudy
5:55 PM 66.2 °F 50.0 °F 56% 29.89 in 7.0 mi South 6.9 mph - N/A   Overcast
6:15 PM 66.2 °F 50.0 °F 56% 29.89 in 7.0 mi South 8.1 mph - N/A   Mostly Cloudy
6:35 PM 66.2 °F 50.0 °F 56% 29.89 in 8.0 mi South 8.1 mph - N/A   Scattered Clouds
6:55 PM 66.2 °F 50.0 °F 56% 29.89 in 10.0 mi South 8.1 mph - N/A   Scattered Clouds
7:15 PM 66.2 °F 50.0 °F 56% 29.89 in 10.0 mi South 8.1 mph - N/A   Partly Cloudy
7:35 PM 66.2 °F 50.0 °F 56% 29.88 in 10.0 mi South 8.1 mph - N/A   Partly Cloudy
7:55 PM 66.2 °F 50.0 °F 56% 29.87 in 10.0 mi South 8.1 mph - N/A   Clear
8:15 PM 66.2 °F 50.0 °F 56% 29.87 in 10.0 mi South 9.2 mph - N/A   Partly Cloudy
8:35 PM 66.2 °F 50.0 °F 56% 29.87 in 10.0 mi South 8.1 mph - N/A   Partly Cloudy
8:55 PM 66.2 °F 50.0 °F 56% 29.86 in 10.0 mi South 10.4 mph - N/A   Scattered Clouds
9:15 PM 66.2 °F 50.0 °F 56% 29.86 in 10.0 mi South 9.2 mph - N/A   Partly Cloudy
9:35 PM 66.2 °F 50.0 °F 56% 29.85 in 10.0 mi South 9.2 mph - N/A   Partly Cloudy
9:55 PM 66.2 °F 50.0 °F 56% 29.84 in 10.0 mi South 11.5 mph - N/A   Clear
10:15 PM 66.2 °F 51.8 °F 60% 29.84 in 10.0 mi South 11.5 mph 20.7 mph N/A   Scattered Clouds
10:35 PM 68.0 °F 51.8 °F 56% 29.84 in 10.0 mi South 15.0 mph 25.3 mph N/A   Mostly Cloudy
11:15 PM 69.8 °F 51.8 °F 53% 29.83 in 10.0 mi SSW 12.7 mph 19.6 mph N/A   Mostly Cloudy
11:35 PM 68.0 °F 51.8 °F 56% 29.82 in 10.0 mi SSW 12.7 mph - N/A   Mostly Cloudy
11:55 PM 68.0 °F 51.8 °F 56% 29.82 in 9.0 mi SSW 9.2 mph - N/A   Mostly Cloudy